Location: Marse
(42.1502°N, 110.9866°W)
Time: 04:17:55
(UTC+00:00)

FO-29 - Visible Passes

Search period start: 26 June 2022 00:00
Search period end: 06 July 2022 00:00
Orbit: 801 x 1320 km, 98.5° (Epoch: 25 June)

Date Brightness Start Highest point End Pass type
(mag) Time Alt. Az. Time Alt. Az. Time Alt. Az.
26 Jun 12.7 03:56:59 10° WSW 03:59:46 12° W 04:02:38 10° WNW visible
28 Jun 12.6 03:51:14 10° WSW 03:54:41 14° W 03:58:14 10° NW visible
30 Jun 12.5 03:45:38 10° WSW 03:49:37 15° W 03:53:43 10° NW visible
02 Jul 12.5 03:40:08 10° WSW 03:44:33 16° W 03:49:06 10° NW visible
04 Jul 12.5 03:34:42 10° SW 03:39:30 18° W 03:44:27 10° NW visible
